Renton, WA

3:23 AM PDT on July 23, 2017 (GMT -0700)
Renton Municipal

Weather History for KRNT - November, 2012

Change the Weather History Date:

Friday, November 9, 2012

  Actual Average Record
Temperature  
Mean Temperature 40 °F -  
Max Temperature 46 °F 52 °F 68 °F (1997)
Min Temperature 33 °F 40 °F 33 °F (2012)
Degree Days  
Heating Degree Days 25    
Moisture  
Dew Point 32 °F    
Average Humidity 78    
Maximum Humidity 93    
Minimum Humidity 52    
Precipitation  
Precipitation 0.00 in - - ()
Sea Level Pressure  
Sea Level Pressure 29.91 in    
Wind  
Wind Speed 3 mph (ESE)    
Max Wind Speed 8 mph    
Max Gust Speed -    
Visibility 9 miles    
Events Snow    
Averages and records for this station are not official NWS values.
T = Trace of Precipitation, MM = Missing Value Source: NWS Daily Summary

Daily Weather History Graph

Daily Weather History Graph

Search for Another Location

Airport or City:

Trip Planner

Search our weather history database for the weather conditions in past years. The results will help you decide how hot, cold, wet, or windy it might be!

Date:

Astronomy

Nov. 09, 2012 Rise Set
Actual Time 7:05 AM PST 4:39 PM PST
Civil Twilight 6:32 AM PST 5:12 PM PST
Nautical Twilight 5:55 AM PST 5:49 PM PST
Astronomical Twilight 5:19 AM PST 6:25 PM PST
Moon 1:51 AM PST (11/9) 2:11 PM PST (11/9)
Length of Visible Light 10h 39m
Length of Day
9h 33m
Waning Crescent, 22% of the Moon is Illuminated
Nov 9
Waning Crescent
Nov 13
New
Nov 20
First Quarter
Nov 28
Full
Dec 6
Last Quarter

Hourly Weather History & Observations

Time (PST) Temp. Windchill Dew Point Humidity Pressure Visibility Wind Dir Wind Speed Gust Speed Precip Events Conditions
12:53 AM 39.0 °F 36.8 °F 36.0 °F 89% 29.87 in 10.0 mi SSE 3.5 mph - N/A   Partly Cloudy
1:53 AM 39.0 °F 36.8 °F 36.0 °F 89% 29.88 in 10.0 mi SE 3.5 mph - N/A   Mostly Cloudy
2:53 AM 37.9 °F 35.5 °F 36.0 °F 93% 29.87 in 10.0 mi East 3.5 mph - N/A   Partly Cloudy
3:53 AM 37.9 °F - 35.1 °F 89% 29.88 in 9.0 mi Calm Calm - 0.00 in   Clear
4:53 AM 37.0 °F - 34.0 °F 89% 29.89 in 9.0 mi Calm Calm - 0.00 in   Clear
5:53 AM 36.0 °F 33.3 °F 34.0 °F 93% 29.89 in 9.0 mi ESE 3.5 mph - 0.00 in Snow Light Snow
6:53 AM 35.1 °F 31.0 °F 33.1 °F 92% 29.90 in 5.0 mi SE 4.6 mph - 0.00 in   Mostly Cloudy
7:53 AM 35.1 °F 32.2 °F 33.1 °F 92% 29.91 in 7.0 mi ESE 3.5 mph - N/A   Scattered Clouds
8:53 AM 37.0 °F 33.3 °F 35.1 °F 93% 29.92 in 9.0 mi East 4.6 mph - 0.00 in   Scattered Clouds
9:53 AM 39.9 °F 37.8 °F 36.0 °F 86% 29.92 in 10.0 mi SSE 3.5 mph - 0.00 in   Clear
10:53 AM 44.1 °F - 35.1 °F 71% 29.93 in 10.0 mi Calm Calm - N/A   Clear
11:53 AM 45.0 °F 43.5 °F 32.0 °F 60% 29.92 in 10.0 mi Variable 3.5 mph - N/A   Partly Cloudy
12:53 PM 46.0 °F 41.9 °F 30.0 °F 54% 29.91 in 10.0 mi NW 8.1 mph - N/A   Partly Cloudy
1:53 PM 46.0 °F 41.9 °F 30.9 °F 56% 29.91 in 10.0 mi NW 8.1 mph - N/A   Clear
2:53 PM 46.9 °F - 30.0 °F 52% 29.90 in 10.0 mi North 5.8 mph - N/A   Clear
3:53 PM 45.0 °F 41.2 °F 28.0 °F 52% 29.90 in 10.0 mi WNW 6.9 mph - N/A   Clear
4:53 PM 42.1 °F 40.2 °F 30.0 °F 62% 29.91 in 10.0 mi West 3.5 mph - N/A   Clear
5:53 PM 42.1 °F - 30.0 °F 62% 29.92 in 10.0 mi Calm Calm - N/A   Clear
6:53 PM 39.2 °F - 30.2 °F 70% 29.91 in 10.0 mi Calm Calm - N/A   Clear
7:53 PM 37.0 °F - 30.0 °F 76% 29.94 in 10.0 mi Calm Calm - N/A   Clear
8:53 PM 35.1 °F - 30.0 °F 82% 29.95 in 10.0 mi Calm Calm - N/A   Scattered Clouds
9:53 PM 35.1 °F 32.2 °F 30.9 °F 85% 29.96 in 10.0 mi SE 3.5 mph - N/A   Mostly Cloudy
10:53 PM 34.0 °F - 30.9 °F 89% 29.97 in 10.0 mi Calm Calm - N/A   Clear
11:53 PM 33.1 °F 30.0 °F 30.9 °F 92% 29.98 in 8.0 mi ESE 3.5 mph - 0.00 in   Clear